Location: Battery Park City
(40.7115°N, 74.0163°W)
Time: 04:32:49
(UTC+00:00)

SKYMED 2 - Pass Details

Date: 08 December 2019
Orbit: 621 x 623 km, 97.9° (Epoch: 28 January)

Event Time Altitude Azimuth Distance (km) Brightness Sun altitude
Exits shadow 22:32:30 - 27° (NNE) 2,140 5.9 -11.8°
Reaches altitude 10° 22:32:52 10° 29° (NNE) 2,002 5.7 -11.9°
Maximum altitude 22:36:56 38° 98° (E) 948 4.1 -12.6°
Drops below altitude 10° 22:40:59 10° 167° (SSE) 1,986 6.2 -13.3°
Sets 22:43:16 0° 175° (S) 2,887 7.2 -13.8°
